CAPE
1388 1764 2353 2554 2462 2413 2427 2320 2298 1992 2087 1979 1902 1893 1795 1694 1623 1708 1741 1636 1489 1532 1612 1503 1453 1531 1514 1508 1474 1480 1505 1502 1424 1342 1240 1084 912 918 809 838 1037 965 779 805 756 914 1109 1141 1042 1147 1054 916 1170 1106 1127 968 963 902 883 884 778 617 640 882 1074 1098 1098 1023 996 899 554 657 754 787 621 413 336 406 269 268 352 337 257 261 263
1408 2010 2433 2540 2477 2469 2410 2294 2220 2043 2136 1980 1908 1864 1823 1876 1882 1735 1506 1381 1366 1476 1467 1345 1378 1298 1197 1341 1410 1544 1466 1367 1308 1252 1193 1110 1047 1072 942 862 886 830 883 930 1010 972 945 893 991 1036 996 935 968 837 817 842 824 850 833 693 643 673 746 788 847 805 831 944 964 870 595 428 584 598 568 514 472 427 231 169 160 160 229 263 324
1760 2150 2406 2509 2512 2463 2343 2311 2251 2147 1975 2070 1797 1857 1891 1786 1779 1738 1471 1448 1484 1504 1226 1341 1338 1353 1400 1437 1491 1468 1436 1296 1288 1237 1196 1178 1138 1004 886 769 866 933 1080 1095 990 1022 967 992 928 972 943 1012 965 970 869 837 804 807 718 783 818 784 767 773 764 645 696 704 774 668 664 648 561 554 470 434 542 170 12 2 8 114 85 118 99
1834 2160 2251 2208 2519 2392 2402 2306 2247 2217 2056 2015 1975 1918 1948 1839 1837 1718 1782 1748 1792 1673 1394 1496 1538 1476 1356 1448 1477 1376 1488 1336 1354 1319 1242 1202 1055 768 899 1200 1197 1020 1004 966 1019 949 901 965 1052 1047 1071 1123 968 852 787 993 1088 904 974 939 874 856 869 922 984 949 803 636 744 644 744 530 522 440 445 430 264 367 365 352 303 158 150 90 15
1846 2029 2139 2183 2246 2374 2338 2363 2282 2106 2103 2141 2146 1991 1933 1951 1989 1920 1937 1837 1885 1700 1662 1609 1547 1502 1491 1431 1283 1250 1390 1496 1527 1497 1338 1206 1263 1407 1382 1203 1000 932 973 1068 1207 1308 1347 1401 1308 1108 1115 942 935 943 965 1035 1042 989 895 865 867 928 988 919 763 662 587 710 596 278 281 323 362 464 320 304 396 418 352 362 366 324 360 363 300
1843 1976 2041 2144 2223 2360 2388 2335 2258 2202 2122 2100 2041 1794 1928 1962 2007 1951 2066 1950 1918 1870 1559 1554 1520 1685 1830 1761 1631 1837 1824 1705 1638 1631 1579 1793 1750 1516 1158 1110 1298 1251 1359 1492 1674 1473 1484 1338 1158 1077 1075 1140 1159 1025 1118 1089 943 874 882 960 1000 986 884 768 663 633 706 723 562 186 312 364 491 544 557 508 451 316 233 190 212 186 227 236 268
1884 1946 2037 2126 2119 2240 2255 2205 2245 2227 2184 2155 2085 1988 1956 1976 1984 2017 1991 2065 2004 2036 2007 1851 1795 1795 1800 1831 1912 1976 1861 1686 1504 1576 1813 1825 1721 1569 1472 1487 1235 844 1056 1454 1414 1208 1108 1157 1210 1391 1342 1341 1268 1264 1236 1197 850 761 847 971 938 868 894 841 760 706 622 251 193 36 53 191 337 395 427 365 250 293 363 249 275 283 311 277 269
1938 2012 2026 1984 1990 2211 2122 2138 2292 2319 2273 2244 2241 2058 2062 1959 2121 2194 2159 2100 2025 2063 1993 1832 1839 1851 1888 1936 2016 1898 1712 1637 1701 1697 1999 1806 1746 1765 1688 1475 1291 1073 1050 1152 1141 1033 1564 1655 1556 1186 1325 1368 1381 1300 1224 1270 1158 762 688 821 1007 1172 1112 808 779 662 553 292 44 305 397 481 523 565 755 510 443 518 376 290 321 257 100 162 293
1882 1999 1934 1890 2027 2305 2132 2094 2249 2339 2288 2211 2162 2205 2095 2236 2164 2091 2107 2177 2142 2112 2091 2048 2018 2012 2042 2033 1980 1752 1694 1555 1418 1746 1998 1758 1748 1786 1735 1721 1636 1508 1303 1192 1147 1096 1155 1500 1440 1358 1414 1400 1331 1239 1253 1102 1251 1243 1186 1225 1242 1265 1343 1054 680 706 506 307 326 408 433 532 745 813 748 702 596 462 496 418 126 0 38 63 120
1802 1799 1776 1855 1928 2180 2053 2062 2160 2336 2309 2235 2294 2304 2248 2280 2156 2085 2087 2100 2220 2176 2108 2170 2149 2062 2098 1971 1889 1782 1874 1439 1410 1662 1521 1517 1804 1961 1864 1919 1900 1603 1486 1453 1442 1262 1132 1087 1081 1155 1321 1365 1372 1353 1236 1151 1149 1148 1213 1257 1214 1114 1114 1222 1154 1136 469 241 300 323 812 750 472 394 428 479 356 277 68 212 332 255 261 194 237
1722 1650 1634 1805 1888 2113 2072 2112 2290 2382 2314 2248 2248 2266 2294 2257 2196 2232 2203 2147 2156 2185 2257 2178 2055 2084 1950 1933 1936 1903 1851 1626 1521 1616 1631 1611 2038 2025 1792 2043 1844 1628 1678 1724 1573 1295 1292 1256 1213 1296 1346 1330 1300 1267 1156 1061 1041 1051 1036 993 966 1039 1145 1292 1141 991 528 238 291 648 1070 852 438 412 474 476 500 555 510 418 301 216 199 345 300
1544 1578 1649 1810 2090 2049 2106 2092 2288 2435 2332 2291 2264 2264 2367 2298 2246 2284 2199 2149 2156 2134 2122 2168 2137 2011 1906 1869 1974 1970 1795 1886 1408 1807 1932 1744 1924 2070 2116 1984 1874 1834 1912 1778 1592 1518 1496 1448 1427 1318 1171 1180 1002 935 1028 997 932 962 998 1017 1001 1135 1169 1096 801 819 751 244 456 621 543 530 508 679 618 465 417 332 338 339 344 351 180 46 330
1592 1668 1766 1842 1867 1846 1828 2242 2389 2415 2325 2357 2370 2360 2405 2412 2325 2250 2218 2135 2186 1869 1898 2168 2167 2023 1878 1746 2015 1924 2035 1989 1902 1849 1868 1779 1748 2065 2229 2154 2027 2044 1967 1800 1708 1563 1470 1476 1279 1167 1089 803 755 779 829 778 790 942 1046 1087 1164 1068 949 1034 677 724 631 236 543 511 522 564 611 694 507 444 430 398 353 310 343 347 385 344 298
1534 1618 1704 1677 1737 1804 2055 2274 2249 2335 2289 2439 2466 2520 2522 2434 2154 2170 2203 2087 2039 1845 2147 2211 2178 2109 1990 1972 1988 1955 1991 1856 1602 1549 1870 1877 1965 2224 2246 2212 2126 2094 2052 1910 1786 1576 1473 1385 1195 1125 866 757 696 628 455 389 638 920 1096 1226 1312 1045 917 786 708 683 533 319 489 530 571 570 622 777 608 487 361 378 536 431 344 331 413 414 343
1466 1534 1611 1756 1919 2012 2123 2253 2221 2304 2304 2371 2370 2518 2557 2449 2289 2329 2215 2095 1959 2224 2171 2190 2156 2060 1980 1963 1962 1993 1749 1512 1441 1309 1199 1782 2140 2182 2098 2154 2164 2144 2096 1967 1754 1661 1530 1269 1150 1084 1010 844 637 468 418 363 672 1008 1181 1396 1461 1079 718 830 797 691 437 402 494 541 559 528 907 776 685 628 626 501 383 669 530 498 407 253 187
1394 1554 1659 1760 1858 1972 2070 2302 2218 2313 2406 2468 2532 2532 2566 2443 2370 2348 2277 2088 2184 2165 2222 2212 2100 2067 1915 1704 1774 1830 1658 1446 1637 1443 1667 1963 2011 2072 2085 2086 2014 1976 1972 1939 1821 1679 1533 1283 1122 1006 946 796 675 669 573 691 882 1116 1393 1551 1643 1241 716 820 816 706 445 462 475 525 570 570 1111 1028 786 695 510 408 343 320 470 347 211 112 137
1370 1526 1630 1678 1802 1937 2157 2234 2241 2410 2412 2508 2588 2610 2413 2168 2202 2331 2237 2225 2037 2271 2204 2122 1835 1600 1659 1540 1432 1845 1719 1530 1925 1992 1917 1849 1844 1928 1891 1759 1730 1842 1813 1718 1788 1619 1456 1238 1030 1026 892 793 865 891 842 912 986 1164 1325 1546 1700 1427 904 724 759 658 422 429 471 556 527 624 926 1140 798 594 520 436 373 372 362 191 73 363 347
1350 1440 1490 1581 1708 1873 2013 2064 2232 2254 2336 2550 2630 2475 2238 2280 2363 2402 2225 2292 2399 2349 2109 1996 1912 1634 1635 1685 1719 1797 2060 2064 1999 1921 1881 1942 2011 1972 1940 1804 1758 1769 1710 1655 1675 1563 1368 1165 1068 1017 948 959 952 969 963 917 904 1012 1216 1315 1519 1385 1124 698 688 572 392 680 468 542 508 830 1227 914 756 645 502 378 362 229 258 257 264 241 280
1379 1449 1495 1596 1730 1846 1916 1935 2010 2162 2154 2321 2374 2377 2304 2342 2346 2402 2325 2429 2394 2138 1882 2085 2048 1846 1878 2230 1897 1752 2028 2004 1938 1924 1833 1868 1899 2001 2049 1842 1773 1716 1658 1644 1602 1597 1437 1261 1131 1044 1022 999 994 990 958 790 774 907 945 1054 1404 1261 1115 658 649 492 530 582 456 492 521 808 1318 926 794 625 524 472 349 306 390 375 324 307 297
1346 1388 1542 1692 1755 1806 1907 1996 2043 2068 2038 2086 2242 2262 2346 2358 2238 2347 2231 2228 2104 1934 1906 1676 1820 2034 1950 1720 1418 1468 1463 1686 1917 1901 1892 1926 1930 1879 2026 1784 1740 1713 1710 1681 1646 1570 1605 1387 1241 1122 1048 1104 1048 996 837 673 603 759 878 848 1302 1094 601 633 667 525 479 470 498 481 543 1040 898 824 791 661 571 460 380 367 322 266 347 428 404
1497 1538 1620 1761 1802 1954 2027 2005 2046 2074 2111 2130 2190 2180 2366 2419 2099 2116 2139 2099 1976 2092 1870 2058 2004 1886 1740 1453 1505 1367 1460 1554 1824 1732 1843 1724 1810 1946 1876 1789 1754 1726 1733 1682 1612 1576 1619 1595 1400 1275 1276 1265 1134 911 742 600 554 577 516 725 785 646 574 631 667 557 524 588 766 485 602 1200 816 894 801 722 635 478 322 268 212 267 308 331 319
1315 1522 1552 1716 1780 1975 2125 2116 2105 2129 2111 2068 2143 2139 1947 2159 2240 2188 2041 2022 1868 1937 2056 1994 1931 1774 1824 1752 1551 1498 1430 1723 1764 1946 1657 1935 1815 1948 1886 1875 1849 1811 1748 1721 1667 1605 1612 1640 1593 1510 1400 1258 890 660 487 356 293 399 501 497 629 794 578 629 669 546 541 502 623 460 769 1224 961 885 791 762 641 469 345 311 271 280 370 266 306
976 1207 1388 1630 1628 1928 1991 2034 2045 2116 2096 2070 2165 2174 2122 2166 2265 2228 2143 2156 2008 1940 1910 1832 1759 1732 1807 1742 1543 1582 1579 1518 1523 1696 1765 1905 1762 1842 1867 1893 1897 1835 1727 1756 1685 1703 1622 1646 1615 1432 1182 1011 852 669 488 306 0 188 474 495 536 750 831 577 559 548 546 496 493 539 918 1248 1030 950 826 716 666 500 453 358 262 222 267 288 296
993 1274 1216 1248 1315 1493 1853 1889 1885 2008 2048 2087 2125 2082 1959 2001 2079 2052 1955 1836 1796 1795 1788 1750 1652 1676 1732 1781 1686 1541 1538 1499 2001 1872 2012 1667 1642 1784 1898 1892 1912 1785 1802 1738 1609 1650 1612 1588 1539 1190 924 813 692 508 195 0 0 0 386 478 523 826 909 777 585 553 540 625 524 643 1046 1238 1073 954 793 697 631 544 487 341 209 194 190 115 124
930 420 294 858 1049 1614 1904 1914 1943 1971 1993 2054 1985 1990 1886 1914 1912 1826 1722 1665 1668 1680 1707 1681 1578 1553 1628 1714 1643 1601 1544 1379 1386 1312 1300 1347 1407 1554 1634 1743 1744 1654 1747 1632 1565 1533 1516 1386 1150 809 468 445 378 315 0 1 0 0 238 407 467 826 891 875 709 576 534 490 605 707 1135 1339 1201 994 782 708 665 515 439 229 198 154 149 140 138
229 415 456 576 734 1572 1902 1918 1986 1958 1945 1945 1888 1922 1778 1797 1720 1625 1573 1619 1562 1585 1604 1568 1513 1516 1557 1638 1639 1538 1375 1230 1219 1205 1201 1278 1323 1499 1505 1634 1628 1641 1581 1535 1447 1299 1346 1286 987 697 570 506 329 2 1 0 0 0 97 340 382 671 962 884 782 646 532 509 545 770 1295 1319 1339 1051 868 720 621 546 408 282 213 141 97 124 117
407 213 348 615 1014 1438 1908 1962 1950 1922 1878 1826 1747 1755 1700 1624 1610 1610 1442 1443 1466 1490 1482 1509 1500 1482 1490 1525 1553 1506 1375 1271 1263 1299 1230 1218 1207 1457 1152 1447 1168 1540 1454 1417 1340 1237 1240 1164 1068 952 777 554 331 0 0 0 0 0 0 142 286 586 953 910 780 685 559 500 492 816 1382 1394 1450 1175 863 707 616 550 319 310 248 174 65 78 130
575 453 731 886 1203 1529 1876 1940 1958 1899 1818 1755 1627 1696 1652 1454 1453 1511 1279 1220 1303 1260 1287 1389 1429 1456 1469 1447 1458 1470 1411 1360 1353 1287 1282 1252 1318 1217 1206 930 906 1001 1274 1305 1203 1150 1153 1190 1149 993 792 553 381 270 245 219 0 0 0 233 143 551 982 1047 925 767 589 502 543 820 1534 1375 1471 1574 845 732 599 457 246 351 266 214 75 48 60
505 496 806 1031 1348 1619 1845 1762 1906 1884 1726 1660 1570 1645 1636 1512 1462 1443 1188 1290 1247 1207 1203 1234 1266 1282 1342 1429 1453 1424 1496 1430 1338 1308 1246 1254 1247 1224 999 965 898 858 1126 1151 1207 1193 1186 1142 1102 964 758 576 462 379 318 237 100 4 182 369 604 766 908 911 986 915 824 759 766 788 1493 1402 1484 1436 1060 744 638 533 387 391 277 221 146 82 39
615 606 888 1066 1374 1808 1813 1812 1850 1820 1728 1647 1613 1593 1575 1557 1426 1333 1226 1240 1218 1199 1175 1164 1177 1186 1165 1260 1328 1339 1389 1466 1387 1307 1252 1281 1224 1098 1039 981 945 924 1064 1125 1112 1025 952 820 726 591 506 466 387 353 300 240 35 164 179 234 233 228 257 556 922 975 920 878 857 778 1455 1487 1372 1280 1282 894 712 560 427 326 252 284 183 123 80
916 682 877 1120 1455 2083 1876 1774 1800 1933 1656 1628 1586 1530 1602 1474 1334 1368 1260 1060 1236 1227 1138 1076 1097 1155 1176 1222 1138 1305 1379 1440 1388 1312 1288 1248 1188 1080 1036 1017 935 962 1066 1034 1094 1119 925 745 678 648 599 474 366 233 178 218 76 0 2 0 0 1 91 280 734 1024 916 938 924 837 1026 1649 1352 1166 1167 972 967 534 472 429 315 276 226 146 147
841 818 952 1140 1404 2012 1902 1812 1862 1925 1716 1673 1720 1625 1636 1446 1348 1487 1349 1273 1295 1329 1248 1286 1413 1249 1166 1160 1172 1227 1400 1425 1385 1362 1232 1172 1167 1124 1014 1000 1040 1053 1036 1004 976 852 797 779 768 712 668 563 502 406 308 298 215 152 40 15 0 0 94 218 592 993 966 886 893 867 831 1331 1479 1076 1083 1010 872 1078 588 442 377 287 192 155 158
857 952 1106 1208 1479 2004 1982 1923 1952 2008 1831 1785 1737 1655 1639 1561 1560 1506 1436 1358 1311 1340 1483 1549 1554 1431 1252 1202 1137 1093 1225 1305 1297 1352 1330 1258 1201 1165 1092 1093 1104 1049 954 860 816 834 845 796 758 738 646 591 549 430 355 319 294 168 164 181 147 100 92 290 440 887 983 898 825 845 821 932 1237 1258 928 1108 840 766 950 553 461 395 253 183 169
1070 1112 1173 1336 1605 2082 2079 2065 2074 2054 1829 1821 1738 1712 1801 1836 1767 1650 1605 1518 1672 1514 1706 1647 1517 1391 1226 1320 1251 1190 1199 1280 1287 1284 1147 1187 1211 1103 1075 1058 1032 1017 962 930 928 912 905 859 925 889 887 704 643 475 400 369 338 301 159 143 154 145 130 395 486 770 940 953 829 817 803 801 1009 1088 987 1192 1125 698 807 818 565 553 431 236 195
1229 1216 1378 1466 1796 2155 2208 2203 2189 2144 2100 1941 1926 2067 2076 2052 1897 1799 1822 1843 1863 1768 1622 1448 1358 1290 1218 1297 1200 1271 1216 1208 1088 1096 1105 1166 1169 1038 854 804 947 1031 1017 959 923 904 897 848 931 990 992 914 776 660 548 482 384 331 285 29 171 163 137 449 598 724 841 938 843 773 821 806 921 976 955 836 1005 907 681 818 867 722 541 384 270
1345 1322 1524 1918 2059 2257 2299 2366 2330 2344 2292 2226 2250 2281 2232 2160 1980 1919 1884 1861 1860 1704 1485 1347 1339 1327 1264 1202 1201 1135 1062 1111 1060 1117 1112 1100 1122 1079 892 773 851 892 874 877 901 917 902 890 966 958 996 980 871 771 642 570 458 354 326 305 217 332 16 134 565 741 820 872 798 711 807 804 843 973 1005 795 696 710 761 726 869 895 921 572 446
1521 1392 1893 2106 2223 2401 2435 2471 2478 2483 2454 2460 2450 2388 2317 2156 2059 1993 1848 1774 1553 1409 1351 1380 1340 1329 1301 1183 1039 1093 1107 987 948 1114 1102 1062 1001 871 791 812 838 877 896 880 902 939 964 979 1023 977 919 961 869 795 694 570 470 380 314 290 353 350 332 0 120 584 745 784 772 702 777 829 859 1293 1181 810 681 647 711 835 815 848 836 895 700
1545 1739 2020 2117 2299 2527 2593 2608 2694 2652 2583 2528 2467 2329 2241 2160 1946 1727 1527 1403 1350 1341 1420 1391 1405 1426 1386 1168 1041 940 1009 943 938 972 974 952 967 860 836 839 843 897 899 886 894 926 925 995 980 946 910 865 854 818 734 567 462 383 308 281 347 355 340 337 0 307 544 734 808 816 857 888 872 950 985 834 748 699 661 692 778 783 664 682 846
1546 1910 2014 2148 2425 2504 2665 2675 2739 2676 2606 2524 2365 2256 2119 1828 1532 1324 1319 1264 1272 1334 1343 1393 1355 1231 1060 821 756 708 694 704 654 734 797 788 796 749 803 820 815 776 797 824 833 883 899 935 896 894 906 857 840 767 705 616 514 396 294 273 243 248 257 343 337 13 449 620 784 882 911 947 902 855 848 862 836 825 759 704 701 782 748 648 730
1592 2007 2011 2269 2380 2558 2709 2740 2742 2600 2521 2485 2380 2096 1616 1291 1190 1202 1146 1149 1081 1070 1314 1398 1300 1073 880 785 688 629 449 388 537 698 661 606 624 657 632 625 617 592 605 642 698 744 802 883 936 869 894 866 844 742 650 623 578 503 402 344 313 281 233 296 318 339 232 95 435 587 745 810 846 873 873 866 811 817 821 796 765 709 623 627 687
1614 1903 2076 2339 2444 2489 2633 2727 2667 2555 2518 2348 2117 1622 1202 1146 1124 987 796 791 893 1064 1148 1307 1230 988 823 834 723 571 0 4 113 400 491 516 446 410 450 462 499 527 545 579 600 638 661 729 802 789 816 820 873 731 578 637 592 525 428 407 360 297 254 176 221 328 335 85 265 334 367 451 601 709 818 758 586 677 740 739 750 770 717 647 644
1553 1730 1937 2164 2346 2380 2533 2654 2556 2532 2460 2162 1812 1384 1151 1095 1013 833 787 831 909 1011 1064 883 486 80 68 0 0 72 324 0 19 0 38 285 0 62 251 358 400 442 420 431 568 549 680 705 680 632 655 719 712 646 576 643 645 554 449 332 50 277 410 68 31 116 311 315 242 269 60 343 348 319 306 348 426 462 517 606 666 678 725 729 730
1489 1559 1711 1791 2136 2310 2395 2430 2446 2478 2351 2048 1603 1195 1170 1053 879 767 796 770 830 714 474 13 0 0 0 0 0 0 0 0 0 202 348 305 0 0 387 474 465 439 327 364 440 491 474 530 605 623 645 518 594 599 655 610 668 603 512 368 253 10 288 260 455 441 197 63 2 162 267 227 93 293 168 178 255 250 342 493 485 503 486 435 535
1246 1191 1110 1340 1900 2177 2264 2258 2288 2293 2240 1951 1256 1182 1134 1005 877 757 684 572 475 101 0 0 0 0 0 0 0 0 0 0 0 247 318 349 0 341 440 451 360 428 184 245 263 297 407 493 438 471 520 458 517 583 611 660 620 480 442 316 276 0 387 296 98 565 525 286 86 122 246 53 81 645 246 170 275 206 162 146 185 276 240 358 289
906 833 800 1065 1560 1799 2000 2098 2095 2056 1856 1526 1086 1094 1002 840 844 765 573 420 273 25 0 0 0 14 0 0 0 0 0 0 0 122 375 368 392 424 562 493 363 340 330 251 326 266 199 308 414 361 448 412 406 504 539 548 336 453 516 431 316 327 382 166 207 610 688 724 549 767 1074 682 496 392 275 187 61 155 201 247 277 308 258 272 298
913 819 800 910 1153 1505 1745 1848 1940 1596 1362 1211 1001 864 692 506 648 671 631 476 220 0 0 0 0 0 0 0 0 0 0 0 0 257 348 361 401 462 504 450 368 320 304 346 348 357 276 348 382 454 392 304 460 472 439 353 473 507 487 425 293 260 158 212 112 195 623 560 583 699 625 607 592 382 369 541 590 486 477 472 487 569 506 444 351
873 840 806 927 1139 1410 1604 1738 1607 1415 1225 1067 786 588 410 401 463 508 513 309 7 0 0 0 0 0 0 0 0 0 0 0 0 0 89 64 46 233 382 436 401 263 53 46 232 375 368 406 426 411 407 338 438 495 478 329 328 392 484 474 405 216 541 2 70 0 410 468 606 771 740 627 667 515 385 526 382 334 232 173 287 219 96 299 194
957 835 818 916 1113 1384 1486 1472 1498 1384 1040 842 704 543 266 234 232 0 0 0 0 0 0 0 0 0 0 0 0 0 0 0 0 0 0 0 0 0 0 0 0 0 0 0 236 255 212 206 285 14 330 348 407 502 470 406 246 340 384 462 464 464 392 452 72 17 0 480 350 424 503 438 708 699 500 569 330 235 223 205 242 204 182 488 287
952 891 864 965 1108 1048 882 1058 1463 1432 878 764 568 223 0 0 0 0 0 0 0 0 0 0 0 0 0 0 0 0 0 0 0 0 0 0 0 0 0 0 0 0 0 0 0 0 0 0 180 261 184 0 68 65 1 46 32 352 325 295 354 362 0 0 114 380 213 0 0 323 211 285 369 414 539 654 504 519 381 286 373 420 451 480 448
908 904 879 888 959 742 769 1200 1521 1364 699 530 229 0 0 0 0 0 0 0 0 0 0 0 0 0 0 0 0 0 0 0 0 0 0 0 0 0 0 0 0 0 0 0 0 0 0 0 0 0 0 0 0 0 0 0 127 160 164 163 115 0 0 133 300 43 0 0 0 0 0 43 146 174 143 434 572 529 379 306 225 171 231 263 266
921 1011 740 1044 791 692 607 684 1323 843 397 60 0 0 0 0 0 0 0 0 0 0 0 0 0 0 0 0 0 0 0 0 0 0 0 0 0 0 0 0 0 0 0 0 0 0 0 0 0 0 0 0 0 0 0 0 0 0 0 0 0 0 0 0 0 0 43 0 10 9 50 0 0 0 24 151 255 244 135 27 0 0 7 68 60
Wind_Speed
29 34 31 34 35 39 40 43 43 45 47 47 49 48 47 43 40 39 38 37 38 38 36 36 36 36 37 37 37 38 37 37 37 37 36 36 36 35 33 32 30 29 28 28 28 28 28 27 26 24 22 22 22 22 22 23 23 23 23 23 24 25 24 24 24 25 25 24 22 22 20 20 20 20 19 18 18 17 16 16 15 12 11 13 15
31 30 30 33 37 39 42 44 45 47 48 48 50 49 48 45 40 37 36 37 36 35 34 35 35 36 36 36 36 36 36 36 37 37 35 35 36 35 33 31 30 29 29 29 27 27 26 25 24 23 22 21 21 21 22 22 23 23 22 24 25 25 24 24 24 24 24 24 22 22 21 21 20 19 18 17 18 18 16 15 14 9 9 15 15
29 30 30 34 39 40 42 45 47 48 50 51 51 50 48 44 40 37 36 35 34 33 34 34 34 35 35 35 37 37 37 36 37 36 35 34 34 34 33 31 30 29 29 29 28 26 26 25 24 22 21 21 20 20 22 23 24 22 23 24 24 23 23 23 22 23 23 23 22 22 22 22 20 19 19 18 18 17 nan nan nan 15 nan 16 nan
34 31 31 35 41 42 44 47 48 50 51 51 47 48 48 44 40 37 37 34 33 32 32 32 32 33 34 35 36 37 37 37 36 35 34 33 33 33 32 31 30 29 29 29 28 26 25 25 24 22 21 21 21 21 22 23 23 22 23 23 23 23 23 23 22 23 23 22 20 16 13 13 16 20 19 18 18 18 16 15 15 15 15 nan nan
35 33 33 36 39 44 48 50 50 51 51 49 44 44 47 44 40 38 36 35 32 32 32 32 33 34 35 36 37 38 37 36 35 35 34 33 33 33 32 31 29 29 29 29 28 28 26 26 24 22 22 21 20 21 22 23 23 22 22 23 23 23 23 22 22 23 22 21 19 15 12 12 12 18 18 19 19 18 17 16 16 16 16 15 15
37 36 37 39 40 44 50 52 52 53 50 46 44 43 44 43 40 39 38 35 33 33 33 32 32 33 34 35 36 37 37 37 36 35 34 32 31 31 32 31 29 28 27 27 27 28 28 25 23 23 22 21 21 21 23 23 23 21 21 22 22 22 21 21 22 22 20 20 19 14 13 13 12 13 18 18 18 17 17 16 16 16 16 16 15
40 38 39 40 41 45 51 53 53 52 49 46 43 42 40 40 40 41 39 36 33 32 33 32 32 33 34 35 36 36 36 36 36 34 31 29 30 30 30 30 29 27 29 30 27 26 25 25 24 23 22 21 21 21 22 23 22 21 20 21 22 21 21 20 20 20 20 17 16 nan nan 11 10 10 18 17 17 18 18 17 17 16 16 15 15
39 38 40 41 41 48 52 52 51 50 49 47 43 40 39 37 40 42 41 37 34 32 32 32 33 34 34 35 35 35 35 35 36 35 33 30 28 27 28 29 28 27 27 25 24 24 24 23 25 24 21 22 21 22 22 22 21 19 20 21 22 22 20 19 18 19 19 16 nan 15 13 11 11 11 16 16 17 17 17 18 17 16 16 16 16
40 41 42 43 44 52 51 50 51 51 51 49 43 39 38 36 38 41 41 37 34 32 31 31 33 34 35 35 35 35 35 35 34 35 34 33 30 27 26 26 25 27 27 25 24 22 23 24 25 24 22 22 22 22 22 21 20 18 18 18 17 14 17 17 18 18 15 14 16 15 15 13 12 11 15 16 17 17 18 17 15 nan nan nan 16
40 41 41 42 45 52 52 52 51 51 51 49 43 40 37 34 37 39 37 36 32 30 29 30 32 33 34 35 36 37 36 35 34 34 34 33 30 27 26 25 27 29 28 26 24 23 22 22 23 24 24 23 22 23 22 20 18 18 18 17 15 14 14 14 16 16 14 14 15 15 14 15 14 13 14 16 15 16 nan 16 12 14 14 17 17
42 41 41 43 46 50 50 51 50 48 47 45 44 42 34 31 37 38 35 32 31 29 27 29 31 33 34 35 36 36 36 34 34 35 34 31 28 27 27 25 27 27 27 26 24 23 22 22 23 25 24 23 23 24 22 20 19 18 19 18 14 14 12 12 15 15 14 14 14 14 16 19 15 11 15 16 16 15 15 15 17 16 17 18 18
44 43 43 44 49 48 47 45 44 42 44 44 44 40 31 31 36 36 32 30 29 27 27 27 29 31 33 35 35 35 35 34 34 34 33 30 29 28 26 27 28 28 26 25 25 23 22 23 24 24 24 24 24 24 22 21 20 19 19 18 14 12 10 10 15 15 14 14 14 15 17 17 14 14 18 17 16 15 15 16 17 17 17 nan 18
46 45 45 45 46 50 48 46 43 43 42 40 42 40 32 32 35 33 30 27 26 25 26 27 28 30 32 34 34 34 34 34 34 34 33 32 31 28 28 29 29 28 26 25 24 23 23 23 24 24 25 24 24 24 22 21 21 20 19 18 16 12 12 13 15 16 15 14 14 16 17 16 15 17 17 18 17 14 14 15 16 17 17 17 18
46 46 47 47 47 53 51 46 44 43 41 37 41 40 35 34 34 32 27 25 24 23 24 25 27 30 31 32 33 34 33 34 34 35 34 33 31 29 28 27 28 28 27 25 23 23 23 24 25 24 24 24 24 24 23 22 21 20 20 19 18 16 18 17 16 17 16 14 14 16 17 16 15 18 18 17 17 15 15 14 15 17 18 18 18
45 46 46 48 49 49 51 43 43 40 37 38 41 42 42 38 34 29 24 23 23 23 24 25 27 30 32 33 34 34 34 34 33 33 27 32 31 29 28 27 26 27 27 25 23 23 24 25 25 25 24 24 24 25 25 24 22 21 20 19 19 19 20 18 17 17 17 15 14 16 16 16 17 18 19 19 18 17 15 17 17 16 17 17 17
43 44 44 44 45 44 41 39 40 37 37 39 42 47 46 38 28 23 21 20 21 23 24 26 28 30 31 34 33 35 34 35 35 35 32 32 30 28 27 26 26 26 26 25 23 23 24 25 25 25 24 24 25 25 25 24 23 21 20 20 21 19 21 20 19 18 18 17 16 16 15 13 16 16 19 18 19 18 16 15 16 15 16 16 16
41 41 42 41 41 38 36 33 35 39 38 39 44 46 40 30 22 19 18 19 22 24 25 26 29 32 32 34 35 36 36 35 35 34 33 31 29 28 26 25 25 25 25 25 23 23 23 24 25 25 25 25 25 26 25 25 24 23 22 22 21 20 20 21 20 19 19 19 17 16 14 13 15 15 19 19 19 19 18 16 15 14 nan 17 16
40 40 40 39 37 35 32 30 33 33 31 34 40 39 30 22 19 18 18 20 21 23 25 28 30 32 32 34 36 36 36 35 34 33 32 29 28 26 26 25 25 25 24 23 23 22 22 23 24 25 25 25 26 26 26 25 25 24 23 24 22 21 22 22 21 20 20 19 20 17 15 14 13 18 20 20 20 18 18 17 16 15 14 15 15
40 40 40 38 35 32 31 30 30 29 28 26 28 29 25 20 19 19 19 20 21 25 28 30 31 34 35 35 34 36 35 34 33 33 31 29 28 27 25 25 24 23 22 21 22 21 21 23 24 25 25 25 26 26 26 26 25 25 25 26 24 22 24 23 21 20 19 21 21 19 15 13 16 19 21 21 20 19 19 19 17 15 15 15 15
40 37 37 35 32 31 29 28 28 27 24 24 27 26 24 23 21 20 20 22 24 27 28 30 33 33 35 35 35 31 30 30 33 29 30 28 26 23 25 24 23 22 20 20 20 21 22 23 24 25 25 26 26 26 26 26 27 26 26 28 26 27 26 24 23 21 20 20 21 21 17 14 18 19 22 22 21 20 19 19 18 16 15 15 15
38 35 33 29 28 28 26 25 24 26 28 29 29 28 25 26 22 21 23 25 26 28 30 32 33 34 33 35 31 28 26 25 27 25 28 24 24 25 24 24 22 21 19 18 19 20 22 23 24 25 26 26 26 26 27 28 28 28 27 28 29 27 26 26 23 22 20 20 21 21 18 16 18 19 22 23 23 22 21 19 19 17 16 15 15
39 35 28 24 25 22 22 24 23 24 28 30 29 30 29 27 24 22 23 24 26 29 29 29 32 30 33 31 28 27 26 25 25 26 22 22 23 22 23 22 21 21 20 19 19 20 22 23 24 25 27 29 29 26 26 28 30 29 28 28 29 27 27 26 25 22 20 20 21 20 20 19 18 20 22 24 24 24 22 19 20 19 17 16 16
36 33 31 30 29 23 19 20 23 23 25 25 26 29 29 27 26 25 24 25 27 29 29 30 29 29 28 28 27 26 25 24 24 24 22 22 20 21 20 21 20 20 20 20 20 20 21 23 24 27 30 30 27 26 27 26 nan 28 27 27 28 28 27 27 26 23 21 20 22 20 20 20 20 20 21 23 25 25 24 21 20 20 18 18 17
34 32 32 31 27 18 14 16 21 23 24 23 24 27 28 28 27 26 26 26 27 28 28 28 27 27 27 26 26 25 24 23 24 26 24 21 19 19 19 19 20 21 20 21 21 20 22 23 27 29 27 26 26 26 26 nan nan nan 25 26 26 27 25 25 25 24 23 21 22 21 20 21 20 21 22 23 24 24 25 24 23 21 20 18 18
30 27 26 21 18 15 14 15 18 22 25 25 27 29 31 30 27 27 27 26 27 27 26 26 25 25 25 24 24 23 23 23 23 23 22 21 19 18 18 20 21 21 23 24 23 23 23 23 24 25 25 25 25 25 nan nan nan nan 22 23 25 28 25 25 24 24 24 22 23 21 20 22 20 21 22 23 24 24 24 26 25 24 22 20 19
20 19 18 16 11 13 14 17 19 21 25 28 29 31 32 30 28 27 27 26 25 25 24 23 23 23 23 23 23 23 22 23 24 23 22 21 20 19 19 19 22 23 24 24 24 23 22 22 21 22 23 24 24 nan nan nan nan nan nan 20 22 26 26 25 25 25 24 23 23 21 22 23 21 21 21 22 24 23 24 27 25 26 nan 22 20
18 20 19 15 13 11 13 19 20 22 27 30 32 33 31 30 29 26 25 24 24 23 21 20 20 21 22 22 24 23 22 23 24 24 22 21 20 20 19 20 21 23 23 23 22 21 21 20 20 20 20 23 23 nan nan nan nan nan nan 18 19 23 26 26 26 25 24 23 24 21 23 24 23 21 21 22 23 23 24 26 25 26 nan nan 22
21 19 19 19 19 16 15 18 19 21 26 29 31 32 31 29 25 23 23 22 21 19 19 18 19 20 21 21 23 22 23 23 23 22 21 21 21 20 20 22 21 19 21 21 19 19 19 18 18 19 20 21 22 21 20 20 nan nan nan 16 18 21 23 24 25 24 23 23 24 22 23 24 24 22 21 21 22 22 23 25 25 26 nan nan nan
20 18 18 17 16 14 14 16 18 20 23 26 27 28 26 24 22 22 21 19 18 17 17 18 18 19 19 21 22 22 22 23 23 22 21 21 20 20 21 20 20 17 19 19 17 16 16 16 17 17 18 19 20 20 19 19 nan nan 17 14 17 20 22 23 24 24 23 23 23 21 20 24 25 24 22 22 22 21 22 23 24 25 26 nan nan
17 21 20 17 16 12 12 13 16 20 23 24 23 23 22 21 22 20 17 18 16 16 16 17 18 19 19 19 20 21 21 22 22 21 21 20 20 20 20 18 19 18 17 16 16 15 14 14 15 16 17 16 18 18 18 18 nan 18 17 15 14 17 20 22 23 23 23 23 22 22 20 24 25 25 25 24 22 21 21 22 23 25 25 25 nan
19 22 19 17 14 12 13 13 17 20 22 20 20 21 20 20 20 17 16 17 16 16 16 17 19 19 20 20 20 20 22 23 22 21 20 18 18 18 17 17 17 16 15 15 15 15 14 13 13 15 15 15 16 15 17 17 nan nan nan nan nan nan nan 22 24 24 24 23 24 24 22 21 24 25 27 26 24 23 23 22 21 24 24 23 24
18 16 15 14 13 11 12 13 18 20 20 19 19 19 19 19 18 16 17 17 17 17 17 17 19 20 20 20 21 22 22 22 22 21 19 17 16 17 15 16 15 15 15 16 15 14 14 14 14 14 13 13 15 16 16 17 16 17 nan nan nan nan nan 21 23 24 24 24 24 25 23 23 23 25 27 26 25 26 25 23 21 22 22 22 23
15 16 16 15 13 10 10 10 14 16 17 16 17 18 18 17 16 16 16 17 17 17 17 18 20 20 20 20 21 21 20 20 20 20 18 16 16 16 15 14 14 15 16 16 15 14 14 15 15 15 15 15 17 17 16 17 18 17 17 19 19 18 nan 21 22 23 23 24 24 25 25 24 25 25 26 27 25 26 27 25 23 23 22 22 21
15 15 16 15 12 12 10 10 10 13 15 16 16 16 16 16 16 16 17 18 18 18 16 18 20 20 20 20 20 19 19 19 20 20 16 14 15 15 15 14 14 15 16 16 15 14 14 15 14 16 15 16 18 17 18 19 18 17 18 18 20 19 19 21 22 22 23 23 24 26 25 25 25 26 27 26 25 26 27 26 24 25 24 22 20
13 12 12 13 13 12 10 9 10 13 13 14 15 15 15 16 16 16 17 17 17 17 17 18 19 20 20 19 19 17 19 20 19 18 15 14 13 15 16 15 15 16 16 17 16 16 15 15 14 15 15 17 19 19 20 19 19 19 19 nan 20 20 20 19 22 23 23 23 26 26 27 26 26 26 27 28 28 26 27 26 24 25 25 24 22
14 11 10 10 8 5 5 7 8 8 8 11 13 14 15 16 16 17 17 17 17 17 17 18 18 19 19 19 18 17 18 19 17 15 15 15 14 15 16 16 18 18 18 17 16 16 16 16 15 15 16 17 19 20 19 20 20 20 18 19 19 19 nan 18 18 20 23 25 26 27 27 27 27 26 26 27 27 28 28 27 25 25 25 24 23
15 14 12 11 5 1 3 4 2 4 7 11 14 15 16 17 17 18 18 17 17 17 17 18 19 19 19 18 16 14 15 17 16 13 15 15 16 17 18 19 19 18 18 18 17 16 16 16 16 16 16 17 19 20 19 19 19 19 19 20 20 19 19 nan 19 18 21 22 24 26 27 27 27 26 26 27 27 28 28 28 27 25 25 25 24
14 15 14 13 6 2 6 6 3 4 8 11 14 16 17 18 18 18 18 18 16 16 17 17 19 19 18 17 16 16 16 16 17 15 15 14 16 18 18 18 18 19 19 18 18 17 17 17 17 17 17 17 18 18 18 18 18 18 19 21 21 22 21 21 nan 21 20 19 20 22 24 26 26 26 27 27 28 29 29 29 28 27 26 27 27
15 14 16 15 12 6 6 7 5 6 9 12 16 18 19 19 18 18 18 17 16 16 15 17 17 17 17 17 17 17 17 17 16 16 16 15 17 17 17 18 18 19 19 18 18 17 19 19 18 17 18 18 17 16 17 18 19 18 19 19 20 22 21 21 22 nan 22 21 20 21 23 23 25 25 25 26 28 28 30 31 31 31 30 29 29
18 19 19 15 13 8 7 8 7 7 9 13 16 17 17 18 18 17 17 15 15 15 14 15 14 16 16 16 16 17 17 17 16 16 16 16 16 17 18 19 19 19 19 18 17 17 17 18 17 16 17 18 18 18 19 20 20 20 18 17 19 19 21 21 22 23 22 nan 22 23 22 22 24 24 25 26 26 27 29 31 31 31 32 31 30
17 18 19 14 12 8 8 6 5 5 8 11 13 16 17 17 17 17 17 14 15 15 14 13 15 16 17 17 16 16 nan nan 16 17 17 16 17 16 17 18 20 20 20 19 18 19 18 17 17 17 17 17 17 19 21 19 21 19 18 19 18 19 19 20 21 21 22 nan 21 24 25 24 22 22 24 26 25 26 27 28 29 30 30 31 31
10 12 16 14 12 11 9 9 6 5 5 8 12 14 13 15 17 17 17 17 17 16 14 14 15 nan nan nan nan nan 16 nan nan nan nan 18 nan nan 17 17 19 21 21 21 20 20 20 19 19 20 19 19 17 20 21 21 19 20 21 19 nan 18 20 nan nan 21 22 22 21 22 nan 24 22 21 23 25 25 25 25 26 27 28 29 29 31
8 9 13 16 16 16 14 16 14 10 8 10 13 15 15 17 18 17 19 17 15 15 16 nan nan nan nan nan nan nan nan nan nan 17 17 18 nan nan 17 18 19 21 23 23 23 23 23 21 21 21 22 23 22 23 24 21 21 22 22 23 20 nan 18 19 19 21 22 nan nan 22 23 21 nan 20 19 19 23 24 24 25 27 30 31 33 35
9 11 14 16 17 18 19 20 19 14 11 12 16 18 22 22 22 21 19 18 17 15 nan nan nan nan nan nan nan nan nan nan nan 18 18 17 nan 18 17 18 19 20 22 24 23 24 23 23 23 23 24 24 24 24 24 24 24 25 24 22 21 nan 19 17 nan 20 23 23 nan 22 23 nan nan 19 18 15 18 19 21 23 26 29 34 35 33
10 11 15 17 17 19 21 22 20 15 11 14 19 22 25 25 22 21 21 20 17 nan nan nan nan nan nan nan nan nan nan nan nan 19 19 19 18 18 18 19 19 20 22 23 23 23 22 22 22 23 23 24 24 24 26 26 26 23 24 26 25 24 19 20 22 22 25 25 24 25 25 24 21 19 18 19 nan 17 20 20 23 26 28 32 33
11 12 13 17 19 21 23 23 20 16 14 16 20 23 23 24 22 22 20 19 18 nan nan nan nan nan nan nan nan nan nan nan nan 20 20 20 21 20 19 19 20 21 21 22 23 23 22 22 21 22 24 23 25 26 25 26 28 28 27 24 24 24 23 20 23 22 23 23 23 24 24 24 24 23 22 22 22 21 21 23 23 23 24 27 28
10 13 15 17 19 23 26 25 20 16 16 20 21 24 23 22 22 21 20 19 nan nan nan nan nan nan nan nan nan nan nan nan nan nan nan nan nan 20 20 20 21 22 nan nan 24 23 23 22 23 22 23 24 25 25 24 26 26 27 26 26 26 24 25 nan nan nan 26 22 25 24 23 26 26 27 25 23 22 23 26 24 23 21 nan 24 25
13 15 20 25 29 29 30 26 20 16 16 21 22 22 23 21 22 nan nan nan nan nan nan nan nan nan nan nan nan nan nan nan nan nan nan nan nan nan nan nan nan nan nan nan 24 24 24 24 23 nan 23 23 24 24 24 26 24 24 25 25 25 26 26 25 nan nan nan 25 23 23 25 27 28 27 24 24 25 26 25 25 24 23 22 24 25
22 28 34 38 40 40 38 24 15 15 18 21 22 20 nan nan nan nan nan nan nan nan nan nan nan nan nan nan nan nan nan nan nan nan nan nan nan nan nan nan nan nan nan nan nan nan nan nan 23 23 22 nan nan nan nan nan nan 23 24 24 25 24 nan nan 25 25 25 nan nan 24 23 24 30 29 27 26 27 27 25 23 25 27 27 26 26
35 38 37 35 33 28 22 15 11 16 19 21 23 nan nan nan nan nan nan nan nan nan nan nan nan nan nan nan nan nan nan nan nan nan nan nan nan nan nan nan nan nan nan nan nan nan nan nan nan nan nan nan nan nan nan nan 22 23 22 23 23 nan nan 25 26 nan nan nan nan nan nan nan 31 27 29 30 32 30 28 26 26 27 28 28 27
33 36 31 30 30 25 21 22 15 16 18 nan nan nan nan nan nan nan nan nan nan nan nan nan nan nan nan nan nan nan nan nan nan nan nan nan nan nan nan nan nan nan nan nan nan nan nan nan nan nan nan nan nan nan nan nan nan nan nan nan nan nan nan nan nan nan nan nan nan nan nan nan nan nan nan 30 31 30 29 nan nan nan nan nan nan
Wind_Direction
291 292 290 296 296 297 297 299 300 301 302 302 301 301 303 304 304 302 302 301 301 301 301 305 306 305 305 305 304 304 303 304 305 305 306 306 306 305 304 304 306 308 310 310 308 306 305 303 302 300 299 297 296 294 296 295 294 293 294 290 283 283 281 275 269 269 271 271 270 268 270 277 274 270 265 258 254 252 247 239 227 217 214 229 231
292 290 290 293 296 296 299 299 300 301 302 304 304 303 303 303 304 302 302 302 301 300 301 304 304 305 305 305 304 303 303 304 304 305 306 306 306 305 304 304 306 307 307 306 304 302 302 303 300 299 299 298 294 293 294 294 292 289 288 286 284 283 282 278 275 273 268 268 269 269 273 275 274 275 271 263 255 254 250 243 240 216 225 231 230
282 287 287 292 294 294 297 298 299 299 300 303 305 303 302 302 303 302 302 301 300 300 302 303 303 304 304 303 303 303 304 304 304 305 305 305 305 305 305 305 306 305 304 302 302 300 302 301 299 298 297 295 291 291 292 292 290 289 285 284 284 283 281 277 270 269 269 267 269 271 274 277 277 277 274 267 258 255 nan nan nan 234 nan 232 nan
287 286 285 292 293 293 294 295 296 297 299 303 303 303 303 302 300 300 300 300 298 298 301 302 302 303 303 303 303 304 305 305 305 305 305 305 304 304 303 303 305 306 304 303 303 303 302 300 298 295 292 291 291 291 292 289 287 284 281 283 284 283 283 280 272 266 265 265 260 252 259 267 273 277 274 267 260 255 257 255 247 245 242 nan nan
285 283 283 284 288 292 293 294 296 299 302 304 302 302 303 299 296 296 297 298 296 298 299 301 302 303 304 304 305 306 306 306 307 307 306 306 305 303 302 303 305 306 306 306 306 304 301 299 298 298 294 292 290 290 288 286 286 282 280 283 283 282 282 280 277 274 269 258 252 251 256 266 272 275 272 270 262 254 255 252 251 248 243 239 234
283 282 283 285 288 291 294 297 299 301 303 303 302 302 301 296 293 293 294 295 296 297 299 301 302 303 304 306 306 307 308 308 308 308 307 306 304 303 303 303 303 304 305 305 303 302 300 297 296 295 288 289 289 287 285 284 285 283 282 283 283 282 282 281 280 277 265 254 246 245 251 260 264 274 278 269 264 259 254 252 247 245 242 240 238
281 281 284 286 288 292 297 299 300 301 300 301 301 300 295 290 289 290 291 292 294 294 297 299 300 302 303 304 304 305 306 306 305 302 299 300 302 302 304 303 301 298 298 300 300 295 296 298 295 288 284 285 285 283 283 281 284 284 281 281 283 281 280 280 280 274 260 249 244 nan nan 243 256 269 278 273 264 256 252 251 247 244 244 244 243
278 280 282 283 286 294 297 298 299 299 298 298 297 295 288 282 283 285 287 289 290 291 294 298 299 301 301 302 302 303 304 302 302 299 295 294 294 298 301 301 300 297 293 289 287 289 290 294 293 289 287 281 276 276 276 279 282 281 282 283 287 279 269 279 279 274 261 248 nan 241 241 242 245 260 281 276 263 258 257 251 246 243 244 244 242
279 280 281 284 289 295 296 298 299 297 297 295 292 286 278 274 276 279 284 285 287 289 293 295 298 299 300 301 301 302 302 302 301 300 300 300 300 299 299 298 294 294 293 290 287 286 287 286 285 283 281 278 272 269 265 268 275 280 278 275 276 269 268 279 282 272 258 245 241 241 242 243 243 260 276 273 267 258 247 243 245 nan nan nan 244
278 280 283 286 291 296 298 301 301 297 295 294 288 279 268 267 271 275 279 281 283 286 289 293 296 298 298 300 301 301 301 302 301 300 299 299 299 297 294 292 290 293 293 292 289 285 280 278 279 279 277 271 265 262 259 260 267 273 276 274 272 271 270 274 283 275 262 252 245 243 243 251 249 246 269 273 269 261 nan 253 247 244 244 247 249
277 278 279 283 289 294 299 303 304 297 293 292 282 269 262 261 269 276 277 275 281 284 286 291 295 296 298 299 300 301 301 301 301 300 298 296 293 292 292 289 291 294 293 292 290 286 281 276 272 271 268 267 261 257 257 259 261 263 263 261 256 254 260 273 275 270 268 260 252 241 249 261 258 257 274 274 272 267 261 256 252 252 249 249 248
278 277 279 283 288 290 294 297 297 289 288 290 277 263 256 256 268 276 274 274 280 281 287 289 292 295 297 298 299 300 300 301 299 298 296 294 290 288 288 289 293 294 292 291 289 285 280 275 271 269 269 263 259 257 256 256 259 262 263 263 258 254 262 278 275 275 274 266 255 249 252 256 264 271 277 275 272 268 264 255 253 251 248 nan 249
279 277 279 279 282 288 292 295 295 288 285 286 273 261 253 258 272 273 267 271 275 279 286 287 290 292 294 297 298 299 299 299 299 298 296 293 291 288 288 292 294 294 292 289 287 284 278 272 268 265 265 262 259 257 255 255 257 261 265 267 265 268 278 285 275 278 275 269 255 257 256 254 260 271 275 276 276 273 266 256 251 253 254 250 249
279 278 279 281 282 288 289 291 292 288 282 280 269 259 257 264 269 263 260 270 273 277 281 285 289 291 294 296 296 297 297 298 298 296 293 290 289 289 291 293 294 294 291 288 284 281 276 271 267 263 261 258 256 253 250 249 252 257 262 264 265 271 279 277 277 277 277 273 266 264 258 256 262 275 277 277 277 273 266 263 256 252 249 248 249
281 280 282 284 285 285 287 288 289 285 280 276 270 265 263 262 256 253 261 266 271 276 282 284 287 290 294 295 294 295 294 290 287 286 293 292 290 292 294 294 294 292 289 284 280 277 274 269 264 260 255 251 249 247 245 244 246 251 258 261 263 270 277 273 272 276 276 271 270 265 261 261 271 275 282 284 282 279 276 265 258 253 250 247 246
277 278 280 284 288 286 283 285 285 284 279 275 272 267 262 256 251 254 259 261 270 278 281 284 288 289 289 290 290 289 286 287 290 294 292 289 292 294 295 293 290 287 283 280 275 273 272 268 265 261 255 249 246 243 242 241 242 245 252 257 260 270 276 272 273 274 275 274 269 266 266 264 279 282 281 281 284 285 283 276 267 258 254 251 248
275 275 280 286 288 285 279 273 276 280 277 276 271 263 254 250 253 255 257 262 269 275 282 285 285 284 288 287 286 285 288 290 288 289 289 291 294 294 294 292 288 282 278 276 273 271 269 269 265 262 255 249 244 241 239 238 239 240 244 252 257 269 276 272 272 272 272 274 270 265 267 257 274 274 280 281 283 287 286 283 277 272 nan 257 252
279 282 283 287 288 284 278 271 270 266 267 272 265 255 251 254 255 251 254 261 268 275 278 278 281 284 284 285 284 286 286 286 288 290 291 291 291 292 290 290 286 279 275 273 273 269 267 265 262 259 255 250 245 241 238 236 235 235 238 244 252 271 276 270 266 266 271 273 271 267 259 258 266 279 280 279 277 280 284 283 281 280 271 264 257
288 285 284 286 285 280 273 268 262 257 255 255 253 257 260 255 251 250 260 262 267 272 275 276 278 282 282 280 284 284 283 286 289 290 291 291 294 291 289 288 285 280 275 274 272 270 264 261 260 256 253 249 245 241 237 234 231 231 233 238 251 267 275 263 260 263 267 268 271 268 263 257 267 277 281 279 280 280 280 281 281 281 275 270 265
293 288 285 289 288 277 271 268 265 263 259 253 252 256 260 255 253 259 264 264 269 271 273 277 280 277 278 276 276 277 282 286 290 290 289 287 286 285 288 288 287 283 277 274 273 269 264 258 255 254 251 248 244 242 237 232 230 229 231 236 249 263 259 259 260 260 262 265 267 269 264 257 273 277 279 279 277 274 276 280 282 282 276 272 267
294 290 286 288 283 274 270 266 264 267 263 254 250 251 253 255 252 260 265 263 264 267 272 271 271 273 275 277 275 276 277 281 285 286 288 283 287 286 290 290 287 285 277 273 269 266 263 258 254 251 249 247 245 240 236 233 231 231 230 234 244 248 255 258 258 255 257 261 264 268 268 259 275 275 277 279 278 275 272 276 280 281 280 277 270
292 287 275 268 265 256 254 255 257 261 263 257 255 252 248 252 245 247 248 254 260 262 259 261 265 267 270 273 277 279 281 283 284 286 285 286 287 288 288 289 286 283 277 269 264 261 259 259 254 251 247 246 244 239 236 232 232 231 229 232 239 245 252 257 258 255 254 256 259 262 266 266 275 273 274 277 278 277 275 272 275 278 279 276 271
286 279 269 259 255 249 246 252 255 259 267 264 258 255 251 244 243 242 244 250 255 254 258 262 265 269 272 275 279 282 283 283 284 287 286 286 284 286 286 286 283 279 272 263 260 255 255 254 254 251 248 246 247 245 242 239 nan 232 230 229 235 242 253 257 257 256 252 250 254 259 262 269 274 273 271 273 276 278 277 274 273 274 275 275 274
287 280 268 259 249 229 238 256 268 270 269 266 255 248 244 240 238 238 242 246 250 256 259 263 267 273 277 280 282 286 285 288 291 294 287 276 273 274 279 280 277 272 267 257 255 253 250 247 248 247 248 247 248 247 247 nan nan nan 231 229 229 235 251 257 258 256 252 246 249 255 258 267 269 273 272 272 273 275 276 275 272 272 271 273 273
291 288 282 274 264 231 243 255 263 271 266 257 248 241 238 237 237 242 246 249 252 255 261 267 273 278 281 284 286 287 283 282 276 274 272 269 265 262 261 259 257 257 256 250 246 242 243 242 244 248 251 250 248 246 nan nan nan nan 232 229 226 232 241 250 255 255 252 245 244 251 254 261 265 270 272 273 271 270 273 273 273 273 270 271 273
259 281 279 270 242 240 271 277 275 268 259 249 241 240 238 239 244 247 249 250 256 260 266 273 278 281 286 287 288 284 280 279 277 276 272 272 270 263 259 256 256 253 252 252 247 245 243 243 245 247 250 252 251 nan nan nan nan nan nan 231 226 230 237 242 249 252 251 247 242 248 248 257 257 267 270 273 272 270 267 269 272 273 nan 272 272
270 287 282 257 262 258 278 281 275 260 249 242 237 235 238 243 247 249 253 255 261 268 273 278 282 287 289 291 290 286 283 278 277 278 278 274 270 264 257 253 250 249 249 252 251 248 245 244 243 245 246 247 248 nan nan nan nan nan nan 236 229 234 237 239 244 249 250 248 242 244 245 251 250 260 265 270 272 270 267 268 268 270 nan nan 274
297 299 285 276 281 283 280 278 258 245 237 235 237 238 243 250 253 258 257 265 270 274 277 283 285 287 289 290 287 286 285 282 281 282 278 271 267 263 259 253 251 250 255 255 254 248 245 242 243 241 241 246 248 248 247 245 nan nan nan 244 238 237 240 240 242 247 250 250 247 243 246 250 250 251 261 263 269 270 269 269 268 268 nan nan nan
303 318 301 303 309 292 292 284 252 238 233 240 247 244 248 252 254 259 265 273 269 274 281 284 283 284 283 284 285 283 282 282 281 279 276 271 267 263 263 260 260 257 259 255 253 249 243 238 238 240 240 242 246 247 246 243 nan nan 247 254 248 243 244 242 241 244 249 253 253 248 250 251 251 252 253 257 261 266 269 271 270 268 267 nan nan
318 330 310 310 316 291 277 270 251 242 241 247 249 250 253 257 262 266 269 272 271 273 278 281 283 281 282 279 279 283 283 281 278 276 276 270 264 264 265 266 263 261 265 268 259 255 250 238 238 239 239 240 244 246 247 242 nan 245 243 248 250 245 245 244 243 243 247 250 251 248 247 251 250 253 249 252 257 263 266 268 268 270 269 268 nan
300 325 311 288 288 297 282 266 248 246 242 247 246 247 257 262 266 268 266 272 273 274 273 275 278 279 278 277 278 280 279 277 278 276 270 271 269 266 265 264 264 264 268 269 263 266 258 249 245 247 246 240 245 248 248 245 nan nan nan nan nan nan nan 243 242 242 242 243 247 247 242 248 249 252 251 251 251 257 263 265 267 270 271 270 269
300 306 287 273 269 287 300 274 251 245 243 241 247 255 264 267 269 267 268 273 278 276 277 276 278 272 275 279 280 274 275 278 280 275 273 272 268 260 254 258 262 261 261 262 261 258 259 252 248 248 250 249 245 244 246 250 241 239 nan nan nan nan nan 245 246 245 244 244 244 243 242 240 245 247 249 251 252 250 260 261 262 267 271 272 271
286 285 277 271 274 296 302 275 261 246 241 244 252 261 263 262 266 268 273 276 279 278 276 276 272 274 276 279 273 273 277 277 275 274 269 269 265 261 253 245 246 251 252 257 254 247 245 247 244 244 245 240 244 242 243 248 245 239 238 238 241 246 nan 244 245 248 249 248 248 246 244 243 241 242 244 247 252 252 251 262 262 263 266 271 272
285 278 275 282 290 289 281 278 268 246 238 245 261 261 254 256 259 264 270 274 276 275 277 275 275 276 276 274 274 273 274 274 278 276 276 276 272 266 258 249 244 248 249 249 248 241 237 237 242 241 239 240 243 241 250 252 247 246 243 239 242 242 249 243 240 243 250 252 252 250 248 246 245 244 243 242 247 253 251 260 260 263 264 266 269
286 278 284 299 304 300 294 276 262 243 244 255 261 252 250 257 260 263 267 272 276 279 279 279 278 277 276 275 276 278 277 272 274 287 292 287 281 271 265 255 250 248 245 241 243 238 235 236 237 244 240 242 244 244 252 260 259 251 246 nan 241 241 247 247 238 236 243 248 251 251 250 248 247 246 245 244 241 249 253 257 259 258 262 263 267
310 291 265 275 292 275 276 270 260 256 256 260 256 255 261 266 268 272 271 274 278 276 278 277 277 274 273 273 272 276 275 274 278 281 284 281 276 270 262 257 254 250 245 240 239 238 238 239 237 243 252 241 249 246 249 257 254 253 247 244 240 237 nan 240 241 238 241 246 249 251 251 250 248 247 247 246 245 245 252 254 257 256 260 262 264
311 284 266 248 239 242 232 239 275 290 286 272 269 271 272 273 272 275 277 276 276 277 277 278 277 277 275 278 282 285 284 288 290 290 283 281 273 269 262 257 251 250 248 240 235 233 239 243 240 239 243 251 251 254 251 254 257 250 249 247 240 236 235 nan 235 238 244 247 249 250 252 252 250 250 248 249 248 247 248 253 254 255 259 261 263
303 300 283 263 255 257 210 189 190 264 277 279 280 279 277 275 274 276 279 275 275 275 277 277 278 280 280 284 289 288 286 283 283 281 278 277 270 268 264 261 255 252 249 243 240 237 237 243 241 237 241 248 251 258 259 254 252 250 245 247 247 247 244 242 nan 237 244 247 248 252 253 254 253 251 249 248 248 248 248 249 254 254 257 262 264
302 274 256 233 221 252 230 189 200 242 265 277 280 277 273 270 270 274 274 274 274 273 275 277 281 282 282 284 285 281 281 280 282 282 280 280 272 269 268 265 258 253 251 244 247 243 238 236 241 241 238 242 251 256 257 254 253 249 249 240 240 245 245 247 248 nan 241 245 250 252 252 254 254 253 253 251 249 248 247 247 249 251 253 260 265
306 281 254 220 208 229 237 205 201 226 253 266 273 271 267 270 273 272 270 274 277 281 277 279 278 278 278 279 276 273 276 277 279 278 273 268 264 264 267 267 262 256 252 246 245 241 238 240 243 248 246 246 251 257 259 261 253 252 247 243 241 239 243 244 243 247 247 nan 247 252 255 253 254 253 253 251 251 250 248 247 248 251 253 257 264
317 292 263 229 206 226 249 239 214 233 258 269 267 271 269 268 266 270 278 278 282 280 278 274 274 272 275 275 275 271 nan nan 274 273 272 273 267 262 260 261 261 258 256 253 246 244 245 248 253 254 257 257 257 261 259 259 266 257 251 249 244 244 241 240 240 240 245 nan 251 252 252 251 255 259 259 256 253 252 251 251 251 252 254 256 259
335 308 279 256 236 245 259 266 272 272 252 255 263 265 268 279 281 282 281 276 276 278 281 274 272 nan nan nan nan nan 271 nan nan nan nan 264 nan nan 258 257 259 258 259 255 253 254 253 252 253 254 251 259 257 258 262 264 261 270 265 258 nan 247 249 nan nan 239 243 247 249 257 nan 251 250 259 263 260 255 253 254 256 257 256 256 257 258
310 290 268 267 267 272 278 284 293 287 249 242 256 266 262 264 269 278 281 276 276 285 290 nan nan nan nan nan nan nan nan nan nan 272 268 263 nan nan 261 258 256 256 257 255 251 251 251 252 251 254 256 254 255 256 265 263 265 262 262 261 257 nan 249 249 246 242 238 nan nan 247 255 258 nan 262 270 265 259 256 254 253 251 250 250 249 244
287 272 273 279 279 284 285 287 285 268 246 238 248 254 260 260 262 272 270 278 286 285 nan nan nan nan nan nan nan nan nan nan nan 272 268 265 nan 264 260 258 258 258 257 258 255 251 252 253 256 256 258 260 258 256 262 263 264 269 263 264 264 nan 253 252 nan 246 241 245 nan 252 253 nan nan 265 272 270 261 262 260 255 254 254 256 251 247
299 296 292 289 283 289 287 284 278 269 244 244 254 260 260 257 261 262 268 270 271 nan nan nan nan nan nan nan nan nan nan nan nan 268 267 265 261 259 257 255 255 253 258 260 261 259 256 256 257 260 264 262 265 261 259 260 261 260 269 264 261 266 268 258 254 251 244 249 249 252 256 254 256 260 262 259 nan 241 250 256 257 258 261 259 255
306 300 293 290 284 277 272 267 264 259 253 253 259 259 265 272 272 276 275 275 283 nan nan nan nan nan nan nan nan nan nan nan nan 266 265 265 264 261 259 258 257 256 257 259 260 260 261 261 260 257 261 257 262 262 262 256 259 255 257 264 265 269 270 265 261 259 251 256 252 253 255 255 255 256 258 261 263 259 254 256 254 258 260 263 262
294 280 278 272 264 263 262 262 263 257 255 261 260 259 262 270 279 284 287 290 nan nan nan nan nan nan nan nan nan nan nan nan nan nan nan nan nan 261 259 254 251 252 nan nan 259 261 260 258 260 263 262 262 263 263 264 262 258 258 258 260 264 264 271 nan nan nan 260 252 252 253 251 251 250 252 252 252 257 260 258 256 258 259 nan 258 259
263 254 249 242 239 238 239 244 250 255 260 269 270 272 273 271 272 nan nan nan nan nan nan nan nan nan nan nan nan nan nan nan nan nan nan nan nan nan nan nan nan nan nan nan 256 255 256 255 259 nan 267 266 269 269 266 265 265 261 260 259 258 257 257 260 nan nan nan 269 261 255 255 247 252 254 253 253 253 252 255 262 257 251 247 252 255
238 237 239 239 239 231 219 206 259 273 277 280 278 274 nan nan nan nan nan nan nan nan nan nan nan nan nan nan nan nan nan nan nan nan nan nan nan nan nan nan nan nan nan nan nan nan nan nan 254 260 264 nan nan nan nan nan nan 270 268 262 261 260 nan nan 259 259 264 nan nan 255 251 254 256 244 245 254 256 252 253 252 251 245 238 236 241
246 248 248 249 258 255 233 213 251 269 271 276 277 nan nan nan nan nan nan nan nan nan nan nan nan nan nan nan nan nan nan nan nan nan nan nan nan nan nan nan nan nan nan nan nan nan nan nan nan nan nan nan nan nan nan nan 272 270 266 271 270 nan nan 264 261 nan nan nan nan nan nan nan 251 245 246 248 253 254 254 253 249 244 242 239 239
256 257 259 260 261 261 236 231 235 245 256 nan nan nan nan nan nan nan nan nan nan nan nan nan nan nan nan nan nan nan nan nan nan nan nan nan nan nan nan nan nan nan nan nan nan nan nan nan nan nan nan nan nan nan nan nan nan nan nan nan nan nan nan nan nan nan nan nan nan nan nan nan nan nan nan 251 254 255 256 nan nan nan nan nan nan